SQ5OUZ-1 Weather Reports


time (UTC)temp
F
wind
direction
speed
knots
gust
knots
rain 1hr
in
rain 24hr
in
rain mn
in
humidity
%
barometer
mb
20260506135728 79 0 0.0 0.0 0.00 0.00 0.00 31 1007.0
20260506134225 80 0 0.0 0.0 0.00 0.00 0.00 31 1006.9
20260506132722 80 0 0.0 0.0 0.00 0.00 0.00 31 1006.9
20260506131218 79 0 0.0 0.0 0.00 0.00 0.00 32 1006.9
20260506125715 80 0 0.0 0.0 0.00 0.00 0.00 31 1006.9
20260506124212 80 0 0.0 0.0 0.00 0.00 0.00 32 1006.8
20260506122709 80 0 0.0 0.0 0.00 0.00 0.00 32 1007.1
20260506121205 79 0 0.0 0.0 0.00 0.00 0.00 33 1007.1
20260506115702 79 0 0.0 0.0 0.00 0.00 0.00 32 1006.9
20260506114159 79 0 0.0 0.0 0.00 0.00 0.00 32 1007.0
20260506112655 80 0 0.0 0.0 0.00 0.00 0.00 32 1006.9
20260506111152 80 0 0.0 0.0 0.00 0.00 0.00 32 1006.8
20260506105649 81 0 0.0 0.0 0.00 0.00 0.00 31 1006.8
20260506104146 81 0 0.0 0.0 0.00 0.00 0.00 30 1006.6
20260506102643 82 0 0.0 0.0 0.00 0.00 0.00 29 1006.6
20260506101139 83 0 0.0 0.0 0.00 0.00 0.00 27 1006.6
20260506095636 82 0 0.0 0.0 0.00 0.00 0.00 27 1006.6
20260506094132 84 0 0.0 0.0 0.00 0.00 0.00 25 1006.6
20260506092628 83 0 0.0 0.0 0.00 0.00 0.00 25 1006.6
20260506091125 86 0 0.0 0.0 0.00 0.00 0.00 22 1006.6
20260506085622 87 0 0.0 0.0 0.00 0.00 0.00 22 1006.5
20260506084119 87 0 0.0 0.0 0.00 0.00 0.00 22 1006.6
20260506082615 86 0 0.0 0.0 0.00 0.00 0.00 23 1006.5
20260506081112 85 0 0.0 0.0 0.00 0.00 0.00 23 1006.5
20260506072602 87 0 0.0 0.0 0.00 0.00 0.00 22 1006.7
20260506071059 86 0 0.0 0.0 0.00 0.00 0.00 23 1006.7
20260506061046 78 0 0.0 0.0 0.00 0.00 0.00 29 1006.9
20260506051033 65 0 0.0 0.0 0.00 0.00 0.00 41 1006.9
20260506044027 68 0 0.0 0.0 0.00 0.00 0.00 36 1006.9
20260506042523 64 0 0.0 0.0 0.00 0.00 0.00 41 1007.1
20260506041020 60 0 0.0 0.0 0.00 0.00 0.00 46 1007.3
20260506035517 58 0 0.0 0.0 0.00 0.00 0.00 49 1007.2
20260506034014 57 0 0.0 0.0 0.00 0.00 0.00 50 1007.0
20260506032510 57 0 0.0 0.0 0.00 0.00 0.00 50 1007.1
20260506031007 57 0 0.0 0.0 0.00 0.00 0.00 49 1007.1
20260506025504 58 0 0.0 0.0 0.00 0.00 0.00 48 1007.2
20260506024001 59 0 0.0 0.0 0.00 0.00 0.00 46 1007.2
20260506022457 59 0 0.0 0.0 0.00 0.00 0.00 44 1007.1
20260506020954 60 0 0.0 0.0 0.00 0.00 0.00 43 1007.3
20260506015451 61 0 0.0 0.0 0.00 0.00 0.00 41 1007.3
20260506013947 62 0 0.0 0.0 0.00 0.00 0.00 38 1007.3
20260506012444 63 0 0.0 0.0 0.00 0.00 0.00 37 1007.4
20260506010941 63 0 0.0 0.0 0.00 0.00 0.00 36 1007.3
20260506005438 63 0 0.0 0.0 0.00 0.00 0.00 37 1007.3
20260506003934 62 0 0.0 0.0 0.00 0.00 0.00 38 1007.4
20260506002431 62 0 0.0 0.0 0.00 0.00 0.00 38 1007.4
20260506000928 61 0 0.0 0.0 0.00 0.00 0.00 38 1007.4
20260505235425 62 0 0.0 0.0 0.00 0.00 0.00 38 1007.5
20260505233921 62 0 0.0 0.0 0.00 0.00 0.00 38 1007.6
20260505232418 63 0 0.0 0.0 0.00 0.00 0.00 37 1007.6
20260505230915 63 0 0.0 0.0 0.00 0.00 0.00 37 1007.5
20260505225412 63 0 0.0 0.0 0.00 0.00 0.00 37 1007.6
20260505223908 64 0 0.0 0.0 0.00 0.00 0.00 36 1007.4
20260505222404 64 0 0.0 0.0 0.00 0.00 0.00 36 1007.5
20260505220901 65 0 0.0 0.0 0.00 0.00 0.00 35 1007.6
20260505215358 66 0 0.0 0.0 0.00 0.00 0.00 33 1007.7
20260505213854 66 0 0.0 0.0 0.00 0.00 0.00 33 1007.6
20260505212351 66 0 0.0 0.0 0.00 0.00 0.00 33 1007.6
20260505210848 67 0 0.0 0.0 0.00 0.00 0.00 31 1007.5
20260505205342 68 0 0.0 0.0 0.00 0.00 0.00 31 1007.5
20260505203839 68 0 0.0 0.0 0.00 0.00 0.00 30 1007.4
20260505202336 69 0 0.0 0.0 0.00 0.00 0.00 30 1007.4
20260505200833 69 0 0.0 0.0 0.00 0.00 0.00 30 1007.3
20260505195329 70 0 0.0 0.0 0.00 0.00 0.00 29 1007.1
20260505193826 71 0 0.0 0.0 0.00 0.00 0.00 28 1007.1
20260505192323 72 0 0.0 0.0 0.00 0.00 0.00 27 1007.2
20260505190818 72 0 0.0 0.0 0.00 0.00 0.00 27 1007.2
20260505185315 72 0 0.0 0.0 0.00 0.00 0.00 27 1007.2
20260505183812 73 0 0.0 0.0 0.00 0.00 0.00 26 1007.2
20260505182309 73 0 0.0 0.0 0.00 0.00 0.00 26 1007.2
20260505180805 74 0 0.0 0.0 0.00 0.00 0.00 24 1007.1
20260505175305 75 0 0.0 0.0 0.00 0.00 0.00 23 1007.1
20260505173759 76 0 0.0 0.0 0.00 0.00 0.00 23 1007.1
20260505172256 77 0 0.0 0.0 0.00 0.00 0.00 22 1007.0
20260505170752 77 0 0.0 0.0 0.00 0.00 0.00 21 1007.0
20260505164320 78 0 0.0 0.0 0.00 0.00 0.00 19 1007.2
20260505162817 78 0 0.0 0.0 0.00 0.00 0.00 19 1007.2
20260505161314 78 0 0.0 0.0 0.00 0.00 0.00 18 1007.4
20260505152804 79 0 0.0 0.0 0.00 0.00 0.00 17 1007.8
20260505151301 80 0 0.0 0.0 0.00 0.00 0.00 17 1007.9